5YDOU HKNW-HKGT

Flight info

Callsign 5YDOU
Flight time N/A
Altitude 23000
Route NV UP312 EPSIB
Aircraft PC12/L-SDFGRWY/S

Departure

Time N/A
Airport Nairobi Wilson Airport (HKNW)

Arrival

Time 2026-04-29 09:21
Airport Garba Tula Airport (HKGT)
Time Latitude Longitude Altitude Speed Heading
2026-04-29 09:21 0.51601 38.51416 1720 ft 0 kts 269°
2026-04-29 09:30 0.51601 38.51420 1725 ft 210 kts 269°
2026-04-29 09:40 0.51595 38.51388 1718 ft 20 kts 229°
2026-04-29 09:41 0.51434 38.51395 1726 ft 21 kts 177°
2026-04-29 09:41 0.51400 38.51456 1727 ft 0 kts 291°
2026-04-29 09:41 0.51479 38.51443 1725 ft 31 kts 12°
2026-04-29 09:41 0.51673 38.51486 1716 ft 30 kts 14°
2026-04-29 09:42 0.51736 38.51500 1712 ft 0 kts 19°
2026-04-29 09:43 0.51784 38.51516 1711 ft 27 kts 22°
2026-04-29 09:43 0.52155 38.51629 1705 ft 86 kts 16°
2026-04-29 09:44 0.52873 38.51771 1845 ft 115 kts
2026-04-29 09:44 0.53685 38.51741 2275 ft 124 kts 345°
2026-04-29 09:44 0.54561 38.51356 2608 ft 143 kts 328°
2026-04-29 09:44 0.55362 38.50904 3287 ft 144 kts 329°
2026-04-29 09:45 0.56359 38.50398 3599 ft 173 kts 331°
2026-04-29 09:45 0.57499 38.49859 3980 ft 187 kts 335°
2026-04-29 09:45 0.58794 38.49297 4016 ft 221 kts 334°
2026-04-29 09:45 0.60195 38.48654 4700 ft 219 kts 333°
2026-04-29 09:46 0.61566 38.47983 5081 ft 229 kts 330°
2026-04-29 09:46 0.63013 38.47182 5143 ft 247 kts 328°
2026-04-29 09:46 0.64573 38.46278 4746 ft 263 kts 327°
2026-04-29 09:46 0.66077 38.45386 5344 ft 236 kts 327°
2026-04-29 09:47 0.67482 38.44523 5686 ft 238 kts 327°
2026-04-29 09:47 0.68869 38.43652 5941 ft 239 kts 326°
2026-04-29 09:47 0.70273 38.42759 6281 ft 238 kts 326°